Weather History for Gallivare, Sweden

Change the Weather History Date:

Monday, February 18, 2013

  Actual Average Record
Temperature  
Mean Temperature 17 °F -  
Max Temperature 26 °F - - ()
Min Temperature 8 °F - - ()
Degree Days  
Heating Degree Days 48    
Moisture  
Dew Point 16 °F    
Average Humidity 85    
Maximum Humidity 93    
Minimum Humidity 80    
Precipitation  
Precipitation 0.00 in - - ()
Sea Level Pressure  
Sea Level Pressure 30.14 in    
Wind  
Wind Speed 6 mph ()    
Max Wind Speed 10 mph    
Max Gust Speed -    
Visibility 5.9 miles    
Events Snow    
T = Trace of Precipitation, MM = Missing Value Source: Averaged Metar Reports

Daily Weather History Graph

Daily Weather History Graph

Search for Another Location

Airport:

Trip Planner

Search our weather history database for the weather conditions in past years. The results will help you decide how hot, cold, wet, or windy it might be!

Date:

Astronomy

Feb. 18, 2013 Rise Set
Actual Time 7:36 AM CET 4:05 PM CET
Civil Twilight 6:39 AM CET 5:03 PM CET
Nautical Twilight 5:36 AM CET 6:06 PM CET
Astronomical Twilight 4:34 AM CET 7:08 PM CET
Moon 8:00 AM CET (2/18) 3:34 AM CET (2/18)
Length of Visible Light 10h 24m
Length of Day
8h 29m
First Quarter, 56% of the Moon is Illuminated
Feb 18
First Quarter
Feb 25
Full
Mar 4
Last Quarter
Mar 11
New
Mar 19
First Quarter

Hourly Weather History & Observations

Time (CET) Temp. Windchill Dew Point Humidity Pressure Visibility Wind Dir Wind Speed Gust Speed Precip Events Conditions
12:20 AM 15.8 °F 5.1 °F 12.2 °F 86% 30.04 in 6.2 mi WNW 8.1 mph - N/A   Unknown
12:50 AM 14.0 °F 6.5 °F 10.4 °F 86% 30.04 in 6.2 mi NNW 4.6 mph - N/A   Unknown
1:20 AM 8.6 °F 2.0 °F 5.0 °F 85% 30.04 in 6.2 mi NNW 3.5 mph - N/A   Scattered Clouds
2:20 AM 14.0 °F 3.9 °F 10.4 °F 86% 30.06 in 6.2 mi NNW 6.9 mph - N/A   Mostly Cloudy
2:50 AM 12.2 °F 2.9 °F 8.6 °F 85% 30.06 in 6.2 mi NNW 5.8 mph - N/A   Overcast
3:20 AM 12.2 °F 4.3 °F 8.6 °F 85% 30.06 in 6.2 mi NNW 4.6 mph - N/A Snow Light Snow
3:50 AM 10.4 °F 0.8 °F 6.8 °F 85% 30.06 in 6.2 mi NW 5.8 mph - N/A   Mostly Cloudy
4:20 AM 14.0 °F 5.1 °F 10.4 °F 86% 30.06 in 6.2 mi NW 5.8 mph - N/A   Overcast
4:50 AM 14.0 °F 5.1 °F 12.2 °F 93% 30.06 in 6.2 mi NNW 5.8 mph - N/A   Ice Crystals
5:20 AM 15.8 °F 5.1 °F 12.2 °F 86% 30.06 in 6.2 mi NNW 8.1 mph - N/A   Mostly Cloudy
5:50 AM 15.8 °F 6.1 °F 12.2 °F 86% 30.06 in 6.2 mi NW 6.9 mph - N/A   Scattered Clouds
6:20 AM 8.6 °F - 6.8 °F 92% 30.06 in 6.2 mi Variable 2.3 mph - N/A   Partly Cloudy
6:50 AM 14.0 °F 5.1 °F 10.4 °F 86% 30.09 in 6.2 mi NW 5.8 mph - N/A   Mostly Cloudy
7:20 AM 15.8 °F 7.2 °F 12.2 °F 86% 30.09 in 5.0 mi NNW 5.8 mph - N/A Snow Light Snow
7:50 AM 12.2 °F 4.3 °F 8.6 °F 85% 30.09 in 6.2 mi NW 4.6 mph - N/A   Overcast
8:20 AM 17.6 °F 9.3 °F 14.0 °F 86% 30.09 in 5.0 mi NNW 5.8 mph - N/A Snow Light Snow
8:50 AM 15.8 °F 6.1 °F 12.2 °F 86% 30.09 in 5.0 mi NW 6.9 mph - N/A Snow Light Snow
9:20 AM 19.4 °F 10.4 °F 15.8 °F 86% 30.12 in 6.2 mi NW 6.9 mph - N/A Snow Light Snow
9:50 AM 19.4 °F 11.5 °F 15.8 °F 86% 30.12 in 4.3 mi NW 5.8 mph - N/A Snow Light Snow
10:20 AM 21.2 °F 12.6 °F 19.4 °F 93% 30.12 in 2.5 mi NW 6.9 mph - N/A Snow Light Snow
10:50 AM 23.0 °F 17.0 °F 19.4 °F 86% 30.12 in 6.2 mi NNW 4.6 mph - N/A Snow Light Snow
11:20 AM 24.8 °F 19.1 °F 21.2 °F 86% 30.12 in 6.2 mi NNE 4.6 mph - N/A Snow Light Snow
11:50 AM 24.8 °F 16.1 °F 21.2 °F 86% 30.12 in 6.2 mi ENE 8.1 mph - N/A Snow Light Snow
12:20 PM 24.8 °F 16.1 °F 21.2 °F 86% 30.15 in 6.2 mi NE 8.1 mph - N/A Snow Light Snow
12:50 PM 24.8 °F 19.1 °F 21.2 °F 86% 30.15 in - ENE 4.6 mph - N/A Snow Light Snow
1:20 PM 26.6 °F 22.6 °F 23.0 °F 86% 30.15 in 6.2 mi North 3.5 mph - N/A Snow Light Snow
1:50 PM 26.6 °F 16.8 °F 21.2 °F 80% 30.15 in 6.2 mi NNE 10.4 mph - N/A Snow Light Snow
2:50 PM 24.8 °F 16.1 °F 21.2 °F 86% 30.15 in 5.6 mi NNE 8.1 mph - N/A Snow Light Snow
3:20 PM 24.8 °F 16.1 °F 21.2 °F 86% 30.18 in 6.2 mi NNE 8.1 mph - N/A Snow Light Snow Grains
3:50 PM 24.8 °F 16.9 °F 19.4 °F 80% 30.18 in 6.2 mi NNE 6.9 mph - N/A Snow Light Snow
4:20 PM 24.8 °F 17.9 °F 21.2 °F 86% 30.18 in 2.2 mi NNE 5.8 mph - N/A Snow Light Snow
4:50 PM 24.8 °F 17.9 °F 19.4 °F 80% 30.18 in 6.2 mi NNE 5.8 mph - N/A Snow Light Snow
5:20 PM 23.0 °F 14.7 °F 19.4 °F 86% 30.21 in 6.2 mi North 6.9 mph - N/A Snow Light Snow
5:50 PM 23.0 °F 15.8 °F 19.4 °F 86% 30.21 in 6.2 mi North 5.8 mph - N/A Snow Light Snow
6:20 PM 23.0 °F 15.8 °F 19.4 °F 86% 30.21 in 6.2 mi North 5.8 mph - N/A Snow Light Snow
6:50 PM 24.8 °F 16.9 °F 21.2 °F 86% 30.21 in 6.2 mi North 6.9 mph - N/A Snow Light Snow
7:20 PM 24.8 °F 16.9 °F 19.4 °F 80% 30.24 in 6.2 mi NNE 6.9 mph - N/A   Overcast
7:50 PM 24.8 °F 16.1 °F 19.4 °F 80% 30.24 in 6.2 mi NE 8.1 mph - N/A   Overcast
8:20 PM 24.8 °F 15.3 °F 19.4 °F 80% 30.24 in 6.2 mi NE 9.2 mph - N/A   Overcast
8:50 PM 24.8 °F 16.1 °F 19.4 °F 80% 30.24 in 6.2 mi NE 8.1 mph - N/A   Overcast
9:20 PM 24.8 °F 19.1 °F 19.4 °F 80% 30.27 in 6.2 mi NNE 4.6 mph - N/A   Overcast
9:50 PM 24.8 °F 16.9 °F 19.4 °F 80% 30.27 in 6.2 mi North 6.9 mph - N/A Snow Light Snow
10:20 PM 23.0 °F 15.8 °F 19.4 °F 86% 30.27 in 6.2 mi NNE 5.8 mph - N/A Snow Light Snow
10:50 PM 23.0 °F 15.8 °F 19.4 °F 86% 30.30 in 6.2 mi North 5.8 mph - N/A Snow Snow Grains
11:20 PM 23.0 °F 15.8 °F 19.4 °F 86% 30.30 in 6.2 mi North 5.8 mph - N/A Snow Light Snow